Home > Weather > Stockerau > Past weeks

Flag for Austria Past Weather in Stockerau, Lower Austria, Austria — Yesterday and Last 2 Weeks

Now
68 °F

Thunderstorms. Broken clouds.


Feels Like: 68 °F
Forecast: 63 / 85 °F
Wind: 7 mph from Southwest

Location: Tulln Airport

Current Time: Jun 30, 2016 at 9:36:33 PM

Latest Report: Jun 30, 2016 at 8:50 PM


Visibility: 9 mi

Pressure: 30.01 "Hg

Humidity: 88%

Dew Point: 64 °F

Location of StockerauLocation

Past Weather in Stockerau — Graph

°F

Stockerau Temperature Yesterday

Maximum temperature yesterday: 86 °F (at 1:50 PM)
Minimum temperature yesterday: 55 °F (at 5:50 AM)
Average temperature yesterday: 76 °F

High & Low Weather Summary for the Past Weeks

 TemperatureHumidityPressure
High91 °F (Jun 24, 2:50 PM)100% (Jun 20, 5:50 AM)30.30 "Hg (Jun 20, 5:50 AM)
Low54 °F (Jun 21, 5:50 AM)34% (Jun 18, 2:50 PM)29.53 "Hg (Jun 17, 5:50 AM)
Average72 °F67%30.02 "Hg
* Reported Jun 15 7:50 PM — Jun 30 7:50 PM, Stockerau, Weather by CustomWeather, © 2016

Note: Actual official high and low records may vary slightly from our data, if they occured in-between our weather recording intervals... More about our weather records

Advertising

Stockerau Weather History for the Previous 24 Hours

Scroll right to see more
 ConditionsComfort  
Time TempWeatherWind HumidityBarometerVisibility
7:50 PM
Thu, Jun 30
73 °FThunderstorms. Broken clouds.6 mph78%29.98 "Hg12 mi
6:50 PM77 °FThunderstorms. Broken clouds.5 mph79%29.98 "Hg16 mi
5:50 PM81 °FBroken clouds.13 mph54%29.95 "Hg22 mi
4:50 PM84 °FBroken clouds.15 mph51%29.95 "Hg28 mi
3:50 PM86 °FPartly sunny.13 mph49%29.95 "Hg28 mi
2:50 PM86 °FPartly sunny.15 mph46%29.95 "Hg31 mi
1:50 PM84 °FPartly sunny.14 mph51%29.95 "Hg31 mi
1:20 PM86 °FPartly sunny.10 mph55%29.95 "Hg31 mi
12:50 PM88 °FPartly sunny.7 mph52%29.95 "Hg31 mi
11:50 AM84 °FPartly sunny.3 mph58%29.95 "Hg37 mi
10:50 AM82 °FPartly sunny.3 mph58%29.95 "Hg37 mi
10:20 AM81 °FPartly sunny.3 mph58%29.95 "Hg37 mi
9:50 AM81 °FScattered clouds.3 mph58%29.95 "Hg37 mi
8:50 AM77 °FScattered clouds.2 mph65%29.95 "Hg37 mi
7:50 AM72 °FScattered clouds.5 mph73%29.95 "Hg37 mi
6:50 AM66 °FPassing clouds.2 mph83%29.95 "Hg37 mi
5:50 AM63 °FPassing clouds.5 mph94%29.95 "Hg37 mi
10:50 PM
Wed, Jun 29
70 °FClear.2 mph78%29.95 "Hg25 mi
9:50 PM72 °FScattered clouds.2 mph69%29.95 "Hg28 mi
Weather by CustomWeather, © 2016

See weather overviewHow to use our weather pages